Weather History for Pella, IA

Change the Weather History Date:

Friday, April 26, 2013

  Actual Average (KOXV) Record (KOXV)
Temperature  
Mean Temperature 58 °F -  
Max Temperature 66 °F 70 °F 89 °F (1987)
Min Temperature 49 °F 47 °F 28 °F (1950)
Degree Days  
Heating Degree Days 8    
Growing Degree Days 8 (Base 50)    
Moisture  
Dew Point 42 °F    
Average Humidity 56    
Maximum Humidity 73    
Minimum Humidity 44    
Precipitation  
Precipitation 0.00 in - - ()
Sea Level Pressure  
Sea Level Pressure 30.18 in    
Wind  
Wind Speed 12 mph (South)    
Max Wind Speed 24 mph    
Max Gust Speed 34 mph    
Visibility 10 miles    
Events      
Averages and records for this station are not official NWS values.
T = Trace of Precipitation, MM = Missing Value Source: NWS Daily Summary

Daily Weather History Graph

Daily Weather History Graph

Search for Another Location

Airport:

Trip Planner

Search our weather history database for the weather conditions in past years. The results will help you decide how hot, cold, wet, or windy it might be!

Date:

Astronomy

Apr. 26, 2013 Rise Set
Actual Time 6:15 AM CDT 8:04 PM CDT
Civil Twilight 5:45 AM CDT 8:34 PM CDT
Nautical Twilight 5:09 AM CDT 9:10 PM CDT
Astronomical Twilight 4:31 AM CDT 9:49 PM CDT
Moon 9:28 PM CDT (4/26) 6:42 AM CDT (4/26)
Length of Visible Light 14h 48m
Length of Day
13h 48m
Full, 99% of the Moon is Illuminated
Apr 26
Full
May 2
Last Quarter
May 9
New
May 17
First Quarter
May 24
Full

Hourly Weather History & Observations

Time (CDT) Temp. Dew Point Humidity Pressure Visibility Wind Dir Wind Speed Gust Speed Precip Events Conditions
12:15 AM 51.1 °F 34.2 °F 52% 30.19 in 10.0 mi SE 9.2 mph - N/A   Clear
12:35 AM 51.1 °F 34.2 °F 52% 30.18 in 10.0 mi SE 8.1 mph - N/A   Clear
12:55 AM 50.9 °F 34.3 °F 53% 30.19 in 10.0 mi SSE 9.2 mph - N/A   Clear
1:15 AM 50.5 °F 34.7 °F 55% 30.19 in 10.0 mi SSE 9.2 mph - N/A   Clear
1:35 AM 50.0 °F 34.7 °F 56% 30.18 in 10.0 mi SSE 6.9 mph - N/A   Clear
1:55 AM 49.3 °F 34.7 °F 57% 30.18 in 10.0 mi SSE 6.9 mph - N/A   Clear
2:15 AM 49.3 °F 35.1 °F 58% 30.18 in 10.0 mi SSE 8.1 mph - N/A   Clear
2:35 AM 50.5 °F 35.4 °F 56% 30.18 in 10.0 mi SSE 10.4 mph - N/A   Clear
2:55 AM 51.3 °F 35.1 °F 54% 30.18 in 10.0 mi SSE 9.2 mph - N/A   Clear
3:15 AM 51.4 °F 35.2 °F 54% 30.17 in 10.0 mi SSE 10.4 mph - N/A   Clear
3:35 AM 51.8 °F 35.1 °F 53% 30.17 in 10.0 mi SSE 10.4 mph - N/A   Clear
3:55 AM 51.8 °F 35.1 °F 53% 30.16 in 10.0 mi SSE 10.4 mph - N/A   Clear
4:15 AM 51.8 °F 35.6 °F 54% 30.16 in 10.0 mi SSE 10.4 mph - N/A   Clear
4:35 AM 52.2 °F 35.2 °F 53% 30.16 in 10.0 mi SSE 9.2 mph - N/A   Clear
4:55 AM 51.8 °F 35.6 °F 54% 30.16 in 10.0 mi SSE 9.2 mph - N/A   Scattered Clouds
5:15 AM 51.8 °F 35.6 °F 54% 30.15 in 10.0 mi SSE 10.4 mph - N/A   Scattered Clouds
5:35 AM 51.4 °F 35.6 °F 55% 30.14 in 10.0 mi SSE 10.4 mph - N/A   Scattered Clouds
5:55 AM 50.9 °F 35.6 °F 56% 30.14 in 10.0 mi SSE 10.4 mph - N/A   Clear
6:15 AM 50.5 °F 35.6 °F 57% 30.14 in 10.0 mi SSE 9.2 mph - N/A   Clear
6:35 AM 50.4 °F 35.8 °F 57% 30.14 in 10.0 mi SSE 9.2 mph - N/A   Clear
6:55 AM 50.2 °F 36.0 °F 58% 30.14 in 10.0 mi SSE 9.2 mph - N/A   Clear
7:15 AM 50.9 °F 36.1 °F 57% 30.15 in 10.0 mi SSE 9.2 mph - N/A   Clear
7:35 AM 52.2 °F 36.7 °F 56% 30.16 in 10.0 mi South 9.2 mph - N/A   Clear
7:55 AM 54.5 °F 37.8 °F 53% 30.16 in 10.0 mi South 10.4 mph - N/A   Clear
8:15 AM 57.2 °F 38.8 °F 50% 30.18 in 10.0 mi SSW 15.0 mph 20.7 mph N/A   Clear
8:35 AM 58.8 °F 39.9 °F 50% 30.18 in 10.0 mi SSW 15.0 mph - N/A   Clear
8:55 AM 60.6 °F 41.4 °F 49% 30.17 in 10.0 mi SSW 17.3 mph 24.2 mph N/A   Clear
9:15 AM 61.2 °F 42.1 °F 50% 30.16 in 10.0 mi SSW 13.8 mph 26.5 mph N/A   Clear
9:35 AM 61.7 °F 42.8 °F 50% 30.17 in 10.0 mi SSW 17.3 mph 28.8 mph N/A   Clear
9:55 AM 61.5 °F 42.8 °F 50% 30.18 in 10.0 mi SSW 20.7 mph 29.9 mph N/A   Clear
10:15 AM 61.5 °F 43.7 °F 52% 30.19 in 10.0 mi SSW 19.6 mph 26.5 mph N/A   Clear
10:35 AM 63.1 °F 44.4 °F 50% 30.18 in 10.0 mi SSW 19.6 mph 24.2 mph N/A   Clear
10:55 AM 62.6 °F 43.3 °F 49% 30.19 in 10.0 mi SSW 15.0 mph 26.5 mph N/A   Clear
11:15 AM 64.0 °F 43.7 °F 48% 30.19 in 10.0 mi SSW 17.3 mph 29.9 mph N/A   Clear
11:35 AM 64.6 °F 44.4 °F 48% 30.19 in 10.0 mi SSW 16.1 mph 28.8 mph N/A   Clear
11:55 AM 65.1 °F 44.4 °F 47% 30.20 in 10.0 mi SSW 24.2 mph 29.9 mph N/A   Clear
12:15 PM 65.1 °F 44.1 °F 46% 30.19 in 10.0 mi SSW 19.6 mph 28.8 mph N/A   Clear
12:35 PM 64.8 °F 43.3 °F 46% 30.19 in 10.0 mi South 21.9 mph 34.5 mph N/A   Clear
12:55 PM 63.7 °F 42.1 °F 45% 30.19 in 10.0 mi SSW 21.9 mph 31.1 mph N/A   Clear
1:15 PM 63.5 °F 42.6 °F 47% 30.19 in 10.0 mi SSW 20.7 mph 27.6 mph N/A   Clear
1:35 PM 65.3 °F 44.1 °F 46% 30.18 in 10.0 mi SSW 20.7 mph 24.2 mph N/A   Clear
1:55 PM 65.1 °F 44.1 °F 46% 30.17 in 10.0 mi South 20.7 mph 25.3 mph N/A   Clear
2:15 PM 65.5 °F 44.8 °F 47% 30.17 in 10.0 mi South 23.0 mph 27.6 mph N/A   Clear
2:35 PM 66.7 °F 44.2 °F 44% 30.17 in 10.0 mi South 20.7 mph 24.2 mph N/A   Clear
2:55 PM 66.6 °F 44.4 °F 45% 30.17 in 10.0 mi South 19.6 mph 25.3 mph N/A   Clear
3:15 PM 66.7 °F 45.1 °F 46% 30.17 in 10.0 mi SSW 17.3 mph 27.6 mph N/A   Scattered Clouds
3:35 PM 65.8 °F 45.7 °F 48% 30.16 in 10.0 mi South 12.7 mph 23.0 mph N/A   Mostly Cloudy
3:55 PM 65.3 °F 46.6 °F 51% 30.16 in 10.0 mi SW 13.8 mph 24.2 mph N/A   Mostly Cloudy
4:15 PM 65.1 °F 46.4 °F 51% 30.16 in 10.0 mi SSW 11.5 mph 20.7 mph N/A   Mostly Cloudy
4:35 PM 63.9 °F 46.0 °F 52% 30.17 in 10.0 mi SSW 13.8 mph 21.9 mph N/A   Overcast
4:55 PM 63.9 °F 46.2 °F 53% 30.18 in 10.0 mi SW 12.7 mph 17.3 mph N/A   Overcast
5:15 PM 63.1 °F 46.4 °F 54% 30.19 in 10.0 mi South 11.5 mph - N/A   Overcast
5:35 PM 62.1 °F 46.0 °F 56% 30.19 in 10.0 mi SSW 12.7 mph 18.4 mph N/A   Overcast
5:55 PM 61.2 °F 46.4 °F 58% 30.20 in 10.0 mi SSW 12.7 mph 21.9 mph N/A   Overcast
6:15 PM 60.6 °F 46.9 °F 61% 30.20 in 10.0 mi SSW 15.0 mph 20.7 mph N/A   Overcast
6:35 PM 59.9 °F 46.6 °F 61% 30.20 in 10.0 mi SSW 13.8 mph 20.7 mph N/A   Overcast
6:55 PM 59.4 °F 46.8 °F 63% 30.20 in 10.0 mi SSW 10.4 mph - N/A   Overcast
7:15 PM 59.0 °F 46.9 °F 64% 30.20 in 10.0 mi SSW 11.5 mph 17.3 mph N/A   Overcast
7:35 PM 58.5 °F 47.1 °F 66% 30.20 in 10.0 mi SSW 12.7 mph 16.1 mph N/A   Overcast
7:55 PM 58.1 °F 47.3 °F 67% 30.20 in 10.0 mi South 8.1 mph - N/A   Overcast
8:15 PM 57.6 °F 47.3 °F 69% 30.20 in 10.0 mi South 11.5 mph - N/A   Overcast
8:35 PM 57.4 °F 47.3 °F 69% 30.22 in 10.0 mi South 10.4 mph - N/A   Overcast
8:55 PM 57.2 °F 47.3 °F 69% 30.23 in 10.0 mi South 6.9 mph - N/A   Overcast
9:15 PM 57.2 °F 46.9 °F 69% 30.23 in 10.0 mi SSW 6.9 mph - N/A   Overcast
9:35 PM 56.8 °F 46.6 °F 69% 30.23 in 10.0 mi South 6.9 mph - N/A   Overcast
9:55 PM 56.5 °F 46.4 °F 69% 30.23 in 10.0 mi South 6.9 mph - N/A   Overcast
10:15 PM 55.8 °F 45.5 °F 68% 30.23 in 10.0 mi South 8.1 mph - N/A   Mostly Cloudy
10:35 PM 54.7 °F 45.0 °F 70% 30.23 in 10.0 mi South 9.2 mph - N/A   Clear
10:55 PM 54.5 °F 44.6 °F 69% 30.23 in 10.0 mi South 11.5 mph - N/A   Clear
11:15 PM 53.6 °F 44.1 °F 70% 30.23 in 10.0 mi South 11.5 mph - N/A   Clear
11:35 PM 52.7 °F 43.9 °F 72% 30.23 in 10.0 mi South 11.5 mph - N/A   Clear
11:55 PM 52.2 °F 43.9 °F 73% 30.22 in 10.0 mi South 12.7 mph - N/A   Clear